Location: ???????
(55.4231°N, 38.5570°E)
Time: 14:28:58
(UTC+00:00)

Cosmos 1766 - Pass Details

Date: 05 August 2024
Orbit: 478 x 492 km, 82.5° (Epoch: 19 September)

Event Time Altitude Azimuth Distance (km) Brightness Sun altitude
Exits shadow 22:38:43 - 127° (SE) 1,952 5.9 -16.3°
Reaches altitude 10° 22:39:49 10° 114° (ESE) 1,671 5.7 -16.3°
Drops below altitude 10° 22:43:32 10° 53° (NE) 1,673 6.6 -16.1°
Enters shadow 23:38:26 -71° 193° (SSW) 12,565 10.1 -12.9°
Maximum altitude 00:16:20 70° 283° (WNW) 520 3.1 -9.8°
